Location: Bad Rothenbrunn
(47.2167°N, 11.2167°E)
Time: 21:50:33
(UTC+00:00)

Daily predictions for brighter satellites

Satellite Brightness Start Highest point End
(mag) Time Altitude Azimuth Time Altitude Azimuth Time Altitude Azimuth
CZ-2C R/B 3.4 17:22:56 10° SSE 17:28:41 87° WSW 17:34:13 10° NNW
Cosmos 2322 Rocket 2.6 17:25:44 10° S 17:30:59 43° ESE 17:36:16 10° NE
Aureole 2 Rocket 3.0 17:30:28 10° N 17:32:29 21° ENE 17:34:29 10° ESE
Sich 1 3.3 17:29:50 10° SSW 17:34:13 80° W 17:38:41 10° N
Nadezhda 3 Rocket 4.3 17:29:23 10° N 17:35:34 50° ENE 17:41:44 10° SSE
Cosmos 1461 3.3 17:31:27 10° SW 17:36:12 84° NW 17:40:59 10° NE
ATLAS 5 CENTAUR R/B 4.0 17:20:33 10° SW 17:36:52 62° NW 17:41:06 10° NE
Meteor 1-25 Rocket 4.3 17:32:27 10° S 17:38:08 64° E 17:43:46 10° NNE
Cosmos 2074 Rocket 4.0 17:35:59 10° S 17:42:13 77° E 17:48:29 10° NNE
Cosmos 2154 Rocket 4.2 17:36:34 10° SSE 17:42:31 51° E 17:48:29 10° NNE
Abrixas rocket 1.4 17:41:10 10° W 17:43:40 82° NNW 17:45:57 12° ENE
YAOGAN 1 2.6 17:39:26 10° SSE 17:43:42 64° ENE 17:48:00 10° N
Helios 1A Rocket 3.4 17:40:11 10° SE 17:43:57 38° ENE 17:47:42 10° N
FALCON 9 DEB 4.4 17:42:40 10° WNW 17:45:30 28° N 17:48:19 10° ENE
APEX 3.7 17:43:49 10° NW 17:46:31 42° WSW 17:49:05 10° S
Cosmos 2219 Rocket 3.7 17:46:28 10° ESE 17:48:55 13° E 17:51:23 10° ENE
COSMO-SKYMED 1 3.1 17:45:25 10° N 17:49:44 64° WNW 17:54:01 10° SSW
GP-B 3.9 17:47:21 10° SE 17:51:11 29° ENE 17:55:02 10° NNE
Cosmos 1992 Rocket 4.1 17:49:46 10° S 17:54:51 54° ESE 17:59:57 10° NNE
Cosmos 2263 Rocket 3.5 17:49:52 10° NW 17:55:07 44° WSW 18:00:21 10° S
SL-16 R/B 2.2 17:49:46 10° SSW 17:55:26 82° ESE 18:01:09 10° NNE
Meteor 1-18 Rocket 4.3 17:49:55 10° N 17:55:52 70° ENE 18:01:45 10° SSE
Cosmos 968 Rocket 3.7 17:50:49 10° NNW 17:56:06 79° WSW 18:01:22 10° SSE
ARGOS 3.2 17:51:26 10° SSE 17:56:48 67° ENE 18:02:13 10° N
FALCON 9 DEB 4.5 17:55:17 10° WNW 17:58:04 27° N 18:00:32 12° NE
USA 234 4.0 17:53:23 10° ENE 17:59:12 33° SE 18:04:59 10° SSW
Cosmos 1486 Rocket 4.1 17:54:32 10° NNW 17:59:51 84° WSW 18:05:10 10° SSE
Cosmos 1515 3.6 17:56:18 10° N 18:00:09 83° E 18:03:58 10° S
Okean 1 3.2 17:56:12 10° N 18:00:14 80° E 18:04:17 10° SSE
SJ 16-02 3.4 18:00:42 10° NE 18:01:44 11° NE 18:02:34 10° ENE
SeaSat 1 2.8 17:57:49 10° NE 18:02:33 44° ESE 18:07:13 10° S
Cosmos 1633 Rocket 3.2 17:58:19 10° SSW 18:02:44 79° W 18:07:12 10° N
Cosmos 2184 Rocket 4.1 17:56:41 10° SSW 18:02:51 80° W 18:09:06 10° N
OBJECT-B 2.7 18:03:22 14° ENE 18:03:22 14° ENE 18:05:04 10° NNE
Okean 1-7 3.7 17:59:45 10° N 18:03:43 32° ENE 18:07:38 10° SE
CZ-2C R/B 2.8 18:02:34 10° NNE 18:07:56 51° E 18:13:07 10° S
CZ-4 R/B 2.0 18:04:23 10° S 18:08:10 58° W 18:12:03 10° NNW
H-2A R/B 2.5 18:02:45 10° S 18:08:11 73° WSW 18:13:39 10° NNW
SAR-Lupe-4 3.5 18:06:55 10° NNE 18:10:31 68° ESE 18:14:04 10° S
USA 305 4.1 18:07:38 10° WNW 18:11:32 33° N 18:14:50 13° NE
Gbstr 26 Del rocket 3.8 18:09:55 10° W 18:14:16 52° N 18:18:27 16° ENE
SL-8 Rocket 4.4 18:08:55 10° SSE 18:14:33 37° E 18:20:10 10° NNE
Cosmos 2237 4.2 18:09:06 10° SSW 18:14:44 64° ESE 18:20:26 10° NNE
SL-4 R/B 2.2 18:13:27 10° WNW 18:16:53 44° N 18:18:38 23° ENE
Cosmos 1869 Rocket 4.5 18:15:58 10° SE 18:19:35 26° E 18:23:15 10° NNE
USA 307 4.2 18:18:59 10° WNW 18:22:54 33° N 18:25:41 16° NE
USA 186 2.7 18:25:07 21° NNE 18:25:07 21° NNE 18:26:20 10° N
ATLAS CENTAUR R/B 1.0 18:20:55 10° SSW 18:24:28 58° ESE 18:26:57 18° NE
FALCON 9 DEB 3.0 18:21:16 10° WNW 18:24:43 82° NNE 18:26:13 31° ESE
USA 306 4.2 18:22:26 10° WNW 18:26:19 33° N 18:28:56 17° NE
Cosmos 1354 Rocket 3.9 18:21:18 10° NNW 18:26:35 84° ENE 18:31:49 10° SSE
ERS-2 2.4 18:24:08 10° N 18:27:47 69° WNW 18:31:24 10° SSW
Okean-O 3.7 18:23:45 10° S 18:28:01 48° W 18:32:20 10° NNW
Cosmos 44 Rocket 4.3 18:23:00 10° NW 18:28:04 50° WSW 18:33:04 10° SSE
FALCON 9 DEB 4.4 18:25:55 10° WNW 18:28:43 28° N 18:29:48 22° NE
CSL-04 Rocket 3.8 18:23:44 10° SSE 18:29:18 84° WSW 18:34:51 10° NNW
Cosmos 2366 rocket 4.4 18:23:45 10° SSE 18:29:31 40° E 18:35:22 10° NNE
SAR-Lupe-1 4.4 18:26:20 10° N 18:29:55 68° WNW 18:33:29 10° SSW
Cosmos 1844 Rocket 2.6 18:24:45 10° NNW 18:30:22 83° ENE 18:35:57 10° SSE
Cosmos 2084 Rocket 4.1 18:26:20 10° NW 18:30:36 57° SW 18:34:58 10° SSE
CSL-04 Debris 4.4 18:25:13 10° S 18:30:39 77° WSW 18:36:10 10° NNW
FALCON 9 DEB 4.4 18:27:50 10° WNW 18:30:39 28° N 18:31:45 22° NE
USA 308 4.2 18:29:39 10° WNW 18:33:33 32° N 18:35:51 19° NE
Cosmos 1666 2.8 18:30:21 10° SSE 18:33:55 46° E 18:37:31 10° NNE
Cosmos 1777 Rocket 4.2 18:30:09 10° NNW 18:35:14 48° ENE 18:37:59 25° SE
Cosmos 1503 Rocket 4.2 18:31:36 10° NNW 18:36:47 70° WSW 18:41:54 10° S
Cosmos 2341 Rocket 3.9 18:31:36 10° S 18:37:52 71° E 18:44:07 10° NNE
Meteor 1-5 Rocket 4.0 18:32:55 10° S 18:38:12 67° E 18:43:42 10° NNE
Cosmos 2333 4.4 18:33:19 10° S 18:38:40 46° ESE 18:44:06 10° NE
Cosmos 1470 Rocket 4.4 18:37:37 10° SSW 18:41:59 54° WNW 18:46:23 10° N
Cosmos 1844 3.7 18:36:22 10° NNW 18:42:12 85° ENE 18:46:58 15° SSE
Okean 3 3.9 18:38:18 10° N 18:42:20 40° ENE 18:42:57 37° E
Ariane Rocket 3.2 18:42:04 25° SE 18:44:43 49° ENE 18:49:38 10° N
Cosmos 2360 Rocket 2.1 18:39:09 10° SSW 18:44:48 89° ESE 18:50:31 10° NNE
Cosmos 2278 Rocket 3.2 18:42:46 10° N 18:47:35 27° NE 18:48:35 26° ENE
Cosmos 1727 Rocket 4.3 18:44:37 10° N 18:50:31 44° ENE 18:52:57 30° ESE
Cosmos 1500 4.2 18:49:06 10° SSW 18:52:42 47° WNW 18:56:20 10° N
Meteor 2-4 Rocket 4.2 18:48:10 10° NNW 18:53:57 67° W 18:59:49 10° S
Cosmos 1703 Rocket 3.7 18:49:46 10° NNW 18:54:11 74° W 18:58:31 10° S
Cosmos 2333 Rocket 2.3 18:49:29 10° S 18:54:56 50° ESE 19:00:27 10° NE
Cosmos 2218 Rocket 4.0 18:50:08 10° S 18:56:27 64° E 19:02:46 10° NNE
ERBS 4.4 18:58:44 10° WNW 19:01:18 20° NNW 19:02:19 18° N
Cosmos 1943 Rocket 4.3 19:04:33 10° NNE 19:06:12 11° NNE 19:06:52 11° NE
Resurs 01 Rocket 2.7 19:12:41 31° NNE 19:12:41 31° NNE 19:15:28 10° N
Cosmos 864 Rocket 4.3 19:07:05 10° S 19:13:13 79° E 19:19:27 10° N
Cosmos 2322 Rocket 3.7 19:10:01 10° WSW 19:15:07 35° NW 19:20:17 10° NNE
Lacrosse 4 Rocket 2.9 19:12:31 10° SSW 19:14:29 26° S 19:14:29 26° S
SME Rocket 4.1 19:09:42 10° NNE 19:18:08 85° ESE 19:23:30 10° SSW
Cosmos 1959 Rocket 4.3 19:12:33 10° S 19:18:39 88° E 19:24:48 10° N
Cosmos 192 4.2 19:17:14 10° SSW 19:22:08 88° WNW 19:27:05 10° NNE
SJ-6B 3.6 19:22:30 36° SSW 19:23:52 53° W 19:27:51 10° NNW
COSMOS 2428 2.6 19:19:22 10° SSW 19:32:12 - NNE 19:24:51 63° ESE
ASTEX 1 3.4 19:22:26 10° N 19:27:21 80° W 19:30:11 25° SSW
MOS 1 4.4 19:25:33 29° S 19:28:37 75° WSW 19:34:20 10° NNW
Meteor 1-23 Rocket 4.0 19:24:13 10° N 19:29:50 77° ENE 19:30:27 68° SE
Cosmos 2219 Rocket 2.0 19:26:21 10° SSW 19:31:56 83° ESE 19:37:35 10° NNE
Meteor 1-11 Rocket 3.8 19:26:13 10° SSW 19:31:57 79° WNW 19:37:36 10° N
OBJECT-B 2.9 19:36:26 26° NW 19:36:26 26° NW 19:38:16 10° NNW
Resurs 1-3 3.9 19:38:47 64° NW 19:38:47 64° NW 19:42:42 10° NNW
SeaSat 1 4.1 19:35:32 10° NNE 19:39:56 33° NW 19:44:19 10° WSW
SL-16 R/B 4.5 19:35:55 10° W 19:40:15 22° NW 19:44:36 10° N
SJ 16-02 2.4 19:36:46 10° NNW 19:39:34 38° N 19:39:34 38° N
USA 234 3.2 19:39:54 39° NE 19:42:39 84° NW 19:49:11 10° WSW
Meteor 2-20 Rocket 4.3 19:43:14 10° N 19:49:08 76° NE 19:49:08 76° NE
Cosmos 2369 Rocket 4.4 19:48:58 10° N 19:50:42 13° NNE 19:50:42 13° NNE
Cosmos 2322 4.2 19:46:25 10° SW 19:52:04 59° WNW 19:57:44 10° NNE
BREEZE-M DEB (TANK) 3.4 19:49:05 10° WNW 19:51:09 49° WNW 19:51:09 49° WNW
USA 305 4.5 19:48:11 10° NW 19:50:56 31° NNW 19:50:56 31° NNW
SL-4 R/B 4.3 19:53:06 10° WNW 19:54:13 19° WNW 19:54:13 19° WNW
Gbstr 26 Del rocket 4.0 19:56:52 10° WNW 20:00:59 55° NNW 20:00:59 55° NNW
ATLAS CENTAUR R/B 3.7 20:00:59 10° W 20:03:10 18° NW 20:03:10 18° NW
SPOT 3 Rocket 4.5 20:18:37 46° WNW 20:18:37 46° WNW 20:22:47 10° NNW
NOSS 3-3 (A) 4.4 20:10:57 10° NW 20:18:28 88° SW 20:18:42 85° SSE
NOSS 3-3 (C) 4.4 20:11:02 10° NW 20:18:34 89° SW 20:18:47 86° SSE
Cosmos 2278 Rocket 3.2 20:26:30 10° NNW 20:30:28 43° NW 20:30:28 43° NW
Cosmos 2333 Rocket 3.8 20:34:22 10° WSW 20:39:26 32° NW 20:44:34 10° NNE
Resurs 01 Rocket 4.3 20:50:14 16° NW 20:50:14 16° NW 20:51:35 10° NW
Cosmos 1943 Rocket 4.2 20:46:15 10° NNW 20:48:24 22° N 20:48:24 22° N
Cosmos 2219 Rocket 4.4 21:12:24 10° W 21:16:37 21° NW 21:20:51 10° N
